Cape Flattery Observation History
Time Wind Speed Temp Pressure Rel. Hum Rain
03/06:30am SE 16-21 kts 24.1°c 1016.5 hPa 70% 0.0mm
03/06:00am SE 17-24 kts 24.1°c 1016.1 hPa 71% 0.0mm
03/05:30am SE 15-22 kts 23.9°c 1015.9 hPa 70% 0.0mm
03/05:00am SE 14-19 kts 24.0°c 1015.7 hPa 74% 0.0mm
03/04:30am SE 14-21 kts 23.9°c 1015.7 hPa 73% 0.0mm
03/04:00am SE 15-21 kts 23.9°c 1015.7 hPa 73% 0.0mm
03/03:30am SE 15-23 kts 24.0°c 1015.8 hPa 73% 0.0mm
03/03:00am SE 17-23 kts 24.1°c 1015.8 hPa 72% 0.0mm
03/02:30am SE 15-22 kts 24.0°c 1015.9 hPa 72% 0.0mm
03/02:00am SE 17-22 kts 24.1°c 1016.1 hPa 71% 0.0mm
03/01:30am SSE 16-23 kts 24.1°c 1016.4 hPa 70% 0.0mm
03/01:00am SSE 17-23 kts 24.0°c 1016.8 hPa 70% 0.0mm
03/12:30am SSE 16-22 kts 24.0°c 1017.0 hPa 71% 0.0mm
03/12:00am SSE 17-22 kts 24.1°c 1017.3 hPa 72% 0.0mm
Time Wind Speed Temp Pressure Rel. Hum Rain
02/11:30pm SSE 15-21 kts 24.0°c 1017.7 hPa 71% 0.0mm
02/11:00pm SSE 17-23 kts 24.1°c 1017.9 hPa 73% 0.0mm
02/10:30pm SSE 17-22 kts 24.2°c 1018.0 hPa 73% 0.0mm
02/10:00pm SSE 17-23 kts 24.3°c 1018.2 hPa 74% 0.0mm
02/09:30pm SSE 15-22 kts 24.2°c 1018.0 hPa 72% 0.0mm
02/09:00pm SSE 16-21 kts 24.2°c 1017.9 hPa 74% 0.0mm
02/08:30pm SSE 17-24 kts 24.3°c 1017.7 hPa 74% 0.0mm
02/08:00pm SSE 16-23 kts 24.3°c 1017.4 hPa 73% 0.0mm
02/07:30pm SSE 16-22 kts 24.4°c 1017.0 hPa 73% 0.0mm
02/07:00pm SSE 16-22 kts 24.4°c 1016.6 hPa 75% 0.0mm
02/06:30pm SSE 17-23 kts 24.4°c 1016.5 hPa 74% 0.0mm
02/06:00pm SSE 17-24 kts 24.3°c 1016.1 hPa 76% 0.0mm
02/05:30pm SSE 16-22 kts 24.5°c 1015.8 hPa 74% 0.0mm
02/05:00pm SSE 18-25 kts 25.0°c 1015.5 hPa 74% 0.0mm
02/04:30pm SSE 17-23 kts 25.4°c 1015.4 hPa 72% 0.0mm
02/04:16pm SSE 17-27 kts 25.4°c 1015.3 hPa 70% 0.0mm
02/04:00pm SSE 17-24 kts 25.8°c 1015.3 hPa 71% 0.0mm
02/03:30pm SSE 17-23 kts 25.6°c 1015.3 hPa 73% 0.0mm
02/03:00pm SSE 18-22 kts 26.1°c 1015.3 hPa 71% 0.0mm
02/02:30pm SSE 16-23 kts 26.8°c 1015.3 hPa 70% 0.0mm
02/02:00pm SSE 17-23 kts 26.8°c 1015.6 hPa 69% 0.0mm
02/01:30pm SSE 19-24 kts 26.5°c 1015.9 hPa 71% 0.0mm
02/01:00pm SSE 17-22 kts 26.6°c 1016.3 hPa 71% 0.0mm
02/12:30pm SSE 18-22 kts 27.4°c 1016.6 hPa 59% 0.0mm
02/12:00pm SSE 15-22 kts 27.9°c 1016.8 hPa 58% 0.0mm
02/11:30am SSE 17-23 kts 27.4°c 1017.2 hPa 59% 0.0mm
02/11:00am SSE 17-22 kts 27.0°c 1017.4 hPa 60% 0.0mm
02/10:30am SSE 17-21 kts 27.2°c 1017.5 hPa 62% 0.0mm
02/10:00am SSE 16-21 kts 27.0°c 1017.6 hPa 60% 0.0mm
02/09:30am SSE 15-21 kts 26.3°c 1017.6 hPa 63% 0.0mm
02/09:00am SSE 15-19 kts 26.1°c 1017.5 hPa 65% 0.0mm
02/08:30am SSE 15-21 kts 25.6°c 1017.2 hPa 65% 0.0mm
02/08:00am SSE 14-19 kts 25.0°c 1017.0 hPa 66% 0.0mm
02/07:30am SE 13-17 kts 24.4°c 1016.7 hPa 71% 0.0mm
02/07:00am SE 12-17 kts 23.8°c 1016.5 hPa 73% 0.0mm
02/06:30am SE 12-15 kts 23.6°c 1016.1 hPa 75% 0.0mm
02/06:00am SE 12-17 kts 23.7°c 1015.9 hPa 73% 0.0mm
02/05:30am SE 11-15 kts 23.7°c 1015.8 hPa 74% 0.0mm
02/05:00am SE 11-16 kts 23.7°c 1015.7 hPa 74% 0.0mm
02/04:30am SE 11-15 kts 23.8°c 1015.6 hPa 74% 0.0mm
02/04:00am SE 12-17 kts 23.9°c 1015.5 hPa 75% 0.0mm
02/03:30am SE 11-14 kts 23.8°c 1015.5 hPa 76% 0.0mm
02/03:00am SE 12-15 kts 23.9°c 1015.5 hPa 76% 0.0mm
02/02:30am SE 10-14 kts 23.8°c 1015.5 hPa 75% 0.0mm
02/02:00am SE 10-13 kts 23.9°c 1015.8 hPa 76% 0.0mm
02/01:30am SE 11-16 kts 24.2°c 1016.1 hPa 74% 0.0mm
02/01:00am SE 10-15 kts 24.0°c 1016.5 hPa 76% 0.0mm
02/12:30am SE 9-12 kts 24.1°c 1016.7 hPa 76% 0.0mm
02/12:00am SE 10-13 kts 24.2°c 1017.0 hPa 75% 0.0mm
Time Wind Speed Temp Pressure Rel. Hum Rain
01/11:30pm SE 9-14 kts 24.3°c 1017.2 hPa 74% 0.0mm
01/11:00pm SE 9-14 kts 24.5°c 1017.4 hPa 75% 0.0mm
01/10:30pm SE 9-12 kts 24.0°c 1017.5 hPa 75% 0.0mm
01/10:00pm SE 9-12 kts 24.2°c 1017.4 hPa 76% 0.0mm
01/09:30pm SE 8-11 kts 24.3°c 1017.3 hPa 75% 0.0mm
01/09:00pm SE 9-12 kts 24.4°c 1017.5 hPa 73% 0.0mm
01/08:30pm SE 9-13 kts 24.5°c 1017.1 hPa 74% 0.0mm
01/08:00pm SE 9-12 kts 24.5°c 1016.8 hPa 75% 0.0mm
01/07:30pm SE 8-13 kts 24.6°c 1016.2 hPa 76% 0.0mm
01/07:00pm SE 10-15 kts 24.6°c 1015.9 hPa 75% 0.0mm
01/06:30pm SE 10-14 kts 24.7°c 1015.3 hPa 75% 0.0mm
01/06:00pm SE 9-14 kts 24.7°c 1015.2 hPa 74% 0.0mm
01/05:30pm SE 11-16 kts 25.2°c 1015.0 hPa 73% 0.0mm
01/05:00pm SE 12-16 kts 25.7°c 1014.7 hPa 70% 0.0mm
01/04:30pm SE 12-17 kts 26.5°c 1014.6 hPa 70% 0.0mm
01/04:00pm SE 13-18 kts 26.5°c 1014.5 hPa 67% 0.0mm
01/03:30pm SE 14-17 kts 27.1°c 1014.6 hPa 66% 0.0mm
01/03:00pm SE 13-17 kts 27.3°c 1014.9 hPa 67% 0.0mm
01/02:30pm SE 13-17 kts 27.6°c 1015.0 hPa 67% 0.0mm
01/02:00pm SSE 14-17 kts 27.7°c 1015.3 hPa 70% 0.0mm
01/01:30pm SE 13-18 kts 27.8°c 1015.4 hPa 66% 0.0mm
01/01:00pm SSE 13-17 kts 27.4°c 1015.6 hPa 73% 0.0mm
01/12:30pm S 15-19 kts 26.9°c 1016.0 hPa 72% 0.0mm
01/12:00pm S 15-20 kts 27.0°c 1016.5 hPa 74% 0.0mm
01/11:30am SSE 13-18 kts 26.4°c 1016.7 hPa 75% 0.0mm
01/11:00am SSE 16-21 kts 26.5°c 1016.7 hPa 76% 0.0mm
01/10:30am SSE 15-19 kts 26.4°c 1016.9 hPa 77% 0.0mm
01/10:00am SSE 13-15 kts 26.4°c 1017.1 hPa 78% 0.0mm
01/09:30am SSE 13-16 kts 25.8°c 1017.1 hPa 78% 0.0mm
01/09:00am SSE 14-18 kts 25.8°c 1017.1 hPa 79% 0.0mm
01/08:30am SSE 12-15 kts 24.7°c 1016.8 hPa 85% 0.0mm
01/08:00am S 9-14 kts 24.3°c 1016.5 hPa 88% 0.0mm
01/07:30am SSE 8-10 kts 23.7°c 1016.2 hPa 88% 0.0mm
01/07:00am SSE 8-11 kts 23.6°c 1016.0 hPa 89% 0.0mm
01/06:30am SE 8-12 kts 23.3°c 1015.8 hPa 88% 0.0mm
01/06:00am SSE 10-13 kts 23.3°c 1015.4 hPa 90% 0.0mm
01/05:30am SE 8-12 kts 23.3°c 1015.3 hPa 89% 0.0mm
01/05:00am SE 9-12 kts 23.6°c 1015.4 hPa 86% 0.0mm
01/04:30am SSE 8-10 kts 23.3°c 1015.3 hPa 90% 0.0mm
01/04:00am SE 10-13 kts 23.4°c 1015.4 hPa 89% 0.0mm
01/03:30am SSE 11-14 kts 23.5°c 1015.4 hPa 88% 0.0mm
01/03:00am SSE 10-14 kts 23.3°c 1015.5 hPa 86% 0.0mm
01/02:30am SSE 11-17 kts 23.5°c 1015.7 hPa 86% 0.0mm
01/02:00am SSE 11-16 kts 23.5°c 1015.9 hPa 87% 0.0mm
01/01:30am SSE 11-16 kts 23.7°c 1016.2 hPa 87% 0.0mm
01/01:00am SE 10-15 kts 23.9°c 1016.4 hPa 86% 0.0mm
01/12:30am SSE 10-13 kts 23.9°c 1016.8 hPa 90% 0.0mm
01/12:00am SE 8-10 kts 23.6°c 1017.0 hPa 88% 0.0mm